Location: Unspecified
(40.7945°N, 111.1337°W)
Time: 10:13:41
(UTC-06:00)

Vanguard 1 - Pass Details

Date: 19 June 2019
Orbit: 653 x 3830 km, 34.3° (Epoch: 18 July)

Event Time Altitude Azimuth Distance (km) Brightness Sun altitude
Exits shadow 00:55:11 10° 128° (SE) 5,917 13.6 -25.4°
Drops below altitude 10° 00:55:38 10° 126° (SE) 5,902 13.6 -25.4°
Sets 01:04:45 0° 97° (E) 6,078 14.0 -25.6°
